Location: ?????
(31.8092°N, 35.2590°E)
Time: 20:37:00
(UTC+00:00)

Cosmos 1455 Rocket - Pass Details

Date: 25 October 2021
Orbit: 604 x 630 km, 82.5° (Epoch: 04 December)

Event Time Altitude Azimuth Distance (km) Brightness Sun altitude
Rises 03:15:53 0° 338° (NNW) 2,915 6.2 -7.9°
Reaches altitude 10° 03:18:25 10° 326° (NW) 2,001 5.3 -7.3°
Maximum altitude 03:22:04 26° 270° (W) 1,245 4.1 -6.6°
Drops below altitude 10° 03:25:41 10° 215° (SW) 1,978 5.4 -5.8°
Sets 03:28:10 0° 202° (SSW) 2,874 6.4 -5.3°
